Weather History for KCAR - March, 2013

Change the Weather History Date:

Monday, March 18, 2013

  Actual Average Record
Temperature  
Mean Temperature 12 °F 25 °F  
Max Temperature 24 °F 34 °F 64 °F (2012)
Min Temperature 0 °F 16 °F -7 °F (1967)
Degree Days  
Heating Degree Days 53 40  
Month to date heating degree days 638 776  
Since 1 July heating degree days 6786 7497  
Cooling Degree Days 0 0  
Month to date cooling degree days 0 0  
Year to date cooling degree days 0 0  
Moisture  
Dew Point -6 °F    
Average Humidity 47    
Maximum Humidity 65    
Minimum Humidity 29    
Precipitation  
Precipitation 0.00 in 0.08 in 0.92 in (1980)
Month to date precipitation 0.62 1.45  
Year to date precipitation 5.99 6.37  
Snow  
Snow 0.00 in 0.50 in 6.10 in (1981)
Month to date snowfall 3.1 12.1  
Since 1 July snowfall 90.5 94.6  
Snow Depth 4.00 in    
Sea Level Pressure  
Sea Level Pressure 30.29 in    
Wind  
Wind Speed 8 mph (WNW)    
Max Wind Speed 23 mph    
Max Gust Speed 29 mph    
Visibility 10 miles    
Events      
T = Trace of Precipitation, MM = Missing Value Source: NWS Daily Summary

Daily Weather History Graph

Daily Weather History Graph

Search for Another Location

Airport or City:

Trip Planner

Search our weather history database for the weather conditions in past years. The results will help you decide how hot, cold, wet, or windy it might be!

Date:

Astronomy

Mar. 18, 2013 Rise Set
Actual Time 6:38 AM EDT 6:42 PM EDT
Civil Twilight 6:08 AM EDT 7:12 PM EDT
Nautical Twilight 5:32 AM EDT 7:48 PM EDT
Astronomical Twilight 4:56 AM EDT 8:24 PM EDT
Moon 10:13 AM EDT (3/18) 12:59 AM EDT (3/18)
Length of Visible Light 13h 04m
Length of Day
12h 03m
Waxing Crescent, 40% of the Moon is Illuminated
Mar 18
Waxing Crescent
Mar 19
First Quarter
Mar 27
Full
Apr 3
Last Quarter
Apr 10
New

Hourly Weather History & Observations

Time (EDT) Temp. Windchill Dew Point Humidity Pressure Visibility Wind Dir Wind Speed Gust Speed Precip Events Conditions
12:54 AM 5.0 °F -9.1 °F -11.0 °F 48% 30.22 in 10.0 mi WNW 9.2 mph - N/A   Clear
1:54 AM 5.0 °F -8.1 °F -9.9 °F 50% 30.23 in 10.0 mi WNW 8.1 mph - N/A   Clear
2:54 AM 3.0 °F -6.4 °F -9.9 °F 55% 30.25 in 10.0 mi West 4.6 mph - N/A   Clear
3:54 AM 3.0 °F -6.4 °F -9.9 °F 55% 30.25 in 10.0 mi WNW 4.6 mph - N/A   Clear
4:54 AM 3.0 °F -8.0 °F -9.9 °F 55% 30.26 in 10.0 mi WNW 5.8 mph - N/A   Clear
5:54 AM 1.9 °F -9.2 °F -9.9 °F 58% 30.28 in 10.0 mi WNW 5.8 mph - N/A   Clear
6:54 AM -0.0 °F -7.9 °F -9.0 °F 66% 30.31 in 10.0 mi West 3.5 mph - N/A   Clear
7:54 AM 3.9 °F -3.4 °F -7.1 °F 60% 30.32 in 10.0 mi West 3.5 mph - N/A   Clear
8:54 AM 8.1 °F -7.0 °F -5.1 °F 55% 30.33 in 10.0 mi NW 11.5 mph 17.3 mph N/A   Clear
9:54 AM 10.0 °F -6.5 °F -6.0 °F 48% 30.34 in 10.0 mi WNW 15.0 mph 21.9 mph N/A   Clear
10:54 AM 12.9 °F -3.4 °F -4.0 °F 47% 30.32 in 10.0 mi NW 16.1 mph 28.8 mph N/A   Clear
11:54 AM 16.0 °F 2.3 °F -2.9 °F 43% 30.31 in 10.0 mi WNW 12.7 mph 24.2 mph N/A   Clear
12:54 PM 19.0 °F 5.0 °F -2.9 °F 38% 30.30 in 10.0 mi WNW 15.0 mph 21.9 mph N/A   Clear
1:54 PM 21.0 °F 9.3 °F -4.0 °F 33% 30.29 in 10.0 mi NW 11.5 mph 21.9 mph N/A   Clear
2:54 PM 23.0 °F 10.1 °F -2.9 °F 32% 30.27 in 10.0 mi NW 15.0 mph 21.9 mph N/A   Clear
3:54 PM 24.1 °F 11.0 °F -2.0 °F 32% 30.26 in 10.0 mi NW 16.1 mph 23.0 mph N/A   Clear
4:54 PM 24.1 °F 13.7 °F -4.0 °F 29% 30.26 in 10.0 mi NW 10.4 mph 18.4 mph N/A   Clear
5:54 PM 23.0 °F 10.6 °F -4.0 °F 31% 30.28 in 10.0 mi NW 13.8 mph - N/A   Clear
6:54 PM 21.0 °F 10.6 °F -2.9 °F 35% 30.28 in 10.0 mi NW 9.2 mph - N/A   Clear
7:54 PM 18.0 °F 9.8 °F -2.0 °F 41% 30.28 in 10.0 mi North 5.8 mph - N/A   Clear
8:54 PM 17.1 °F 7.6 °F -4.0 °F 39% 30.28 in 10.0 mi North 6.9 mph - N/A   Clear
9:54 PM 12.9 °F 5.2 °F -2.0 °F 51% 30.32 in 10.0 mi WSW 4.6 mph - N/A   Clear
10:54 PM 14.0 °F - -2.9 °F 47% 30.34 in 10.0 mi Calm Calm - N/A   Clear
11:54 PM 12.0 °F - -4.0 °F 49% 30.33 in 10.0 mi Calm Calm - N/A   Clear